Regional Weather Roundup
Issued by NWS

Home | Current Version | Previous Version | Text Only | Print | Product List | Glossary Off
Versions: 1 2 3 4 5 6 7 8 9 10 11 12 13 14 15 16 17 18 19 20 21 22 23 24 25 26 27 28 29 30 31 32 33 34 35 36 37 38 39 40 41 42 43 44 45 46 47 48 49 50

000
ASUS43 KMPX 122310
RWRMN
WEATHER ROUNDUP FOR MINNESOTA
NATIONAL WEATHER SERVICE TWIN CITIES/CHANHASSEN MN
500 PM CST FRI FEB 12 2016


NOTE: "FAIR" INDICATES FEW OR NO CLOUDS BELOW 12,000 FEET WITH NO
SIGNIFICANT WEATHER AND/OR OBSTRUCTIONS TO VISIBILITY. N/A MEANS
CURRENT SKY AND/OR WEATHER CONDITIONS ARE NOT AVAILABLE.

MNZ060>063-068>070-130000-
   Twin Cities Metro

CITY           SKY/WX    TMP DP  RH WIND       PRES   REMARKS
TWIN CITIES    CLEAR      9 -11  40 NW16      30.51R WCI  -8
ST PAUL        CLEAR      9 -10  42 N21       30.53R WCI -11
CRYSTAL        CLEAR      9 -11  40 NW14      30.51R WCI  -7
BLAINE         CLEAR     10  -9  40 NW16      30.50R WCI  -7
LAKEVILLE      CLEAR      7  -9  47 NW18      30.49R WCI -12
EDEN PRAIRIE   CLEAR      9 -11  40 N16       30.51R WCI  -8
SOUTH ST PAUL  CLEAR     10 -12  37 NW15      30.51R WCI  -7
LAKE ELMO      FAIR      10 -11  37 N12G18    30.50R WCI  -4
$$
MNZ001>005-007-008-013>017-022>024-027-028-130000-
   Northwest Minnesota

CITY           SKY/WX    TMP DP  RH WIND       PRES   REMARKS
BEMIDJI        CLEAR     -4 -15  59 NW14      30.53S WCI -23
HALLOCK        CLEAR     -4 -15  59 NW10      30.68R WCI -21
ROSEAU         MOCLDY    -6 -15  65 W10       30.61R WCI -23
WARROAD        PTCLDY    -4 -17  54 NW13      30.59R WCI -23
THIEF RVR FALL CLEAR     -6 -22  45 NW17      30.62S WCI -28
CROOKSTON      CLEAR     -2  -9  71 N13       30.67F WCI -21
FOSSTON          N/A     -6 -15  65 NW10      30.60S WCI -23
DETROIT LAKES  CLEAR     -4  -9  77 NW15      30.58F WCI -25
MOORHEAD       CLEAR      0  -8  71 N14       30.66S WCI -19
PARK RAPIDS    CLEAR     -1 -13  56 W16       30.52R WCI -21
MAHNOMEN       FAIR      -6 -14  68 NW12      30.61S WCI -25
$$
MNZ006-009>011-018-025>026-130000-
   North Central Minnesota

CITY           SKY/WX    TMP DP  RH WIND       PRES   REMARKS
BAUDETTE       CLEAR     -4 -18  51 NW9       30.53R WCI -20
FLAG ISLAND    CLEAR     -6 -17  59 NW16      30.56R WCI -28
INTL FALLS     CLEAR     -4 -18  51 NW9G20    30.49R WCI -20
WASKISH        CLEAR     -2 -15  55 W10       30.54R WCI -19
LONGVILLE      CLEAR      0 -17  46 W10G18    30.51R WCI -17
GRAND RAPIDS   CLEAR      0 -15  50 NW17G24   30.46R WCI -21
CRANE LAKE     CLEAR     -4 -18  50 NW8G16    30.48R WCI -19
ORR            CLEAR     -6 -20  49 NW12      30.43R WCI -24
COOK           CLEAR     -2 -18  46 NW14G21   30.45R WCI -21
WALKER         FAIR      -1 -15  51 W12       30.52S WCI -19
$$
MNZ012-019>021-037-130000-
   Northeast Minnesota

CITY           SKY/WX    TMP DP  RH WIND       PRES   REMARKS
DULUTH         PTCLDY     0 -17  44 NW16G23   30.38R WCI -20
ELY            CLEAR     -2 -17  50 NW10G16   30.38R WCI -19
HIBBING        CLEAR     -3 -17  51 NW18G26   30.44R WCI -25
EVELETH        CLEAR      1 -18  39 NW13G25   30.43R WCI -16
DULUTH HARBOR  CLEAR      7 -15  36 NW16      30.49R WCI -11
TWO HARBORS    CLEAR      3 -15  43 W10       30.39R WCI -12
SILVER BAY     CLEAR      1 -17  42 W8G20     30.37R WCI -12
GRAND MARAIS     N/A      0 -15  49 VRB6G17   30.40R WCI -12
G MARAIS ARPRT CLEAR     -8 -20  54 W15G24    30.23R WCI -29
$$
MNZ029>031-032-039>041-046>048-054>057-064-130000-
   West Central Minnesota

CITY           SKY/WX    TMP DP  RH WIND       PRES   REMARKS
FERGUS FALLS   CLEAR      0  -9  65 N12G18    30.65R WCI -18
WHEATON        CLOUDY     1  -6  71 NW15      30.66S WCI -18
MORRIS         CLEAR      3  -6  66 NW17      30.59R WCI -17
ALEXANDRIA     CLEAR      2 -12  52 NW14G20   30.55R WCI -16
ELBOW LAKE     FAIR       1  -9  63 NW14      30.60R WCI -18
WADENA         CLEAR      0 -11  60 NW12      30.54S WCI -18
GLENWOOD       CLEAR      3  -9  55 NW14      30.55R WCI -15
APPLETON       PTCLDY     5  -2  72 NW18      30.62R WCI -15
BENSON         CLEAR      3  -8  60 N14G21    30.59S WCI -15
ORTONVILLE     CLEAR      1  -9  60 N13       30.62S WCI -16
MADISON        CLEAR      3  -6  66 NW14      30.63R WCI -15
WILLMAR        FAIR       7  -6  56 NW17      30.57R WCI -12
$$
MNZ033>034-036-042>043-049>051-058-059-130000-
   Central Minnesota

CITY           SKY/WX    TMP DP  RH WIND       PRES   REMARKS
ST CLOUD       CLEAR      6 -10  47 NW15      30.52R WCI -12
SAUK CENTRE    FAIR       3 -11  53 NW14      30.55R WCI -15
PAYNESVILLE    PTCLDY     5  -8  54 NW13G20   30.55R WCI -12
AITKIN         CLEAR      5 -18  33 NW5       30.49R WCI  -4
PINE RIVER     CLEAR      1 -15  46 NW12G17   30.53R WCI -15
BRAINERD       CLEAR      4 -15  41 NW16      30.51R WCI -15
STAPLES        CLEAR      1 -15  46 NW16      30.53R WCI -18
LONG PRAIRIE   FAIR       3 -11  51 W14       30.53S WCI -15
LITTLE FALLS   CLEAR      7 -13  40 W13G20    30.53R WCI  -9
LITCHFIELD     CLEAR    N/A N/A N/A NW13G20   30.55R
BUFFALO        CLEAR      7 -10  46 NW13      30.54R WCI  -9
MAPLE LAKE     CLEAR      8  -7  49 NW10G16   30.54R WCI  -6
$$
MNZ037-044-045-052-053-130000-
   East Central Minnesota

CITY           SKY/WX    TMP DP  RH WIND       PRES   REMARKS
PRINCETON      CLEAR      9 -11  40 NW14G23   30.51R WCI  -8
MORA           CLEAR      7 -13  40 NW8G21    30.51R WCI  -6
CAMBRIDGE      CLEAR      9  -9  43 NW10G16   30.50R WCI  -6
RUSH CITY      PTCLDY     6 -12  44 NW10G17   30.50R WCI  -9
MOOSE LAKE     CLEAR      5 -15  39 N12G18    30.45S WCI -11
HINCKLEY       FAIR       7 -13  40 NW14G20   30.48R WCI -10
CLOQUET        CLEAR      1 -18  39 NW20      30.42R WCI -20
MCGREGOR       CLEAR      3 -15  43 NW9       30.48R WCI -11
$$
MNZ071>073-080-081-089-090-097-098-130000-
   Southwest Minnesota

CITY           SKY/WX    TMP DP  RH WIND       PRES   REMARKS
MONTEVIDEO     MOCLDY     5  -4  66 N17       30.62R WCI -14
GRANITE FALLS  PTCLDY     7  -1  70 NW16      30.61S WCI -12
CANBY          PTCLDY     7  -1  69 NW14      30.62R WCI -10
MARSHALL       CLEAR      3  -3  76 N17       30.59R WCI -17
REDWOOD FALLS  CLEAR      7  -4  60 NW15      30.57R WCI -10
OLIVIA         CLEAR     10  -2  56 NW17      30.56R WCI  -7
PIPESTONE      CLOUDY     7  -9  47 N12       30.53R WCI  -9
WINDOM         MOCLDY     5  -2  72 NW22G28   30.53R WCI -16
WORTHINGTON    CLOUDY     3  -6  66 N15       30.55R WCI -15
JACKSON        PTCLDY     5  -4  66 NW18      30.53R WCI -15
TRACY          CLEAR      5  -3  71 N16G24    30.57R WCI -14
SLAYTON        PTCLDY     3  -4  74 NW14      30.54R WCI -15
$$
MNZ065>067-074>077-082>085-091>093-130000-
   South Central Minnesota

CITY           SKY/WX    TMP DP  RH WIND       PRES   REMARKS
MANKATO        CLEAR      9  -6  52 NW16G22   30.52R WCI  -9
NEW ULM        CLEAR      9  -8  47 N15G23    30.54R WCI  -8
ST JAMES       CLEAR      9   1  72 NW16G23   30.55R WCI  -9
FAIRMONT       PTCLDY     7  -2  66 NW18      30.51R WCI -12
GLENCOE        CLEAR      9  -5  51 NW18      30.53R WCI  -9
FARIBAULT      CLEAR      9  -8  47 NW15      30.49R WCI  -8
OWATONNA       CLEAR      7  -8  51 NW17      30.48R WCI -12
WASECA         CLEAR     10  -2  56 NW15G24   30.51R WCI  -6
ALBERT LEA     CLEAR      9  -6  52 NW12G20   30.47R WCI  -6
$$
MNZ078>079-086>088-094>096-130000-
   Southeast Minnesota

CITY           SKY/WX    TMP DP  RH WIND       PRES   REMARKS
ROCHESTER      CLEAR      6  -6  57 NW21      30.42R WCI -14
RED WING       CLEAR     10 -15  31 NW9G20    30.48R WCI  -2
STANTON        CLEAR      9  -8  44 NW17      30.49R WCI  -9
DODGE CENTER   PTCLDY     7  -8  51 NW17G23   30.44R WCI -12
WINONA         CLEAR     12  -6  44 NW17      30.47R WCI  -5
AUSTIN         CLEAR      7  -4  61 NW15      30.45R WCI -11
PRESTON        CLEAR      7  -7  51 N16G22    30.41R WCI -11
$$
ABBREVIATIONS USED IN REMARKS
   TC - TEMPERATURES IN CELSIUS
  WCI - WIND CHILL INDEX
   HX - HEAT INDEX
  VSB - VISIBILITY
$$



USA.gov is the U.S. government's official web portal to all federal, state and local government web resources and services.